Regional Weather Roundup
Issued by NWS Wilmington, NC

Home | Current Version | Previous Version | Text Only | Print | Product List | Glossary On
Versions: 1 2 3 4 5 6 7 8 9 10 11 12 13 14 15 16 17 18 19 20 21 22 23 24 25 26 27 28 29 30 31 32 33 34 35 36 37 38 39 40 41 42 43 44 45 46 47 48 49 50
000
ASUS42 KILM 041213
RWRILM
RWRILM
REGIONAL HOURLY WEATHER ROUNDUP
NATIONAL WEATHER SERVICE WILMINGTON NC
800 AM EDT MON MAY 04 2015

NOTE: "FAIR" INDICATES FEW OR NO CLOUDS BELOW 12,000 FEET WITH NO
SIGNIFICANT WEATHER AND/OR OBSTRUCTIONS TO VISIBILITY.

...............WFO WILMINGTON COUNTY WARNING AREA...............

......COASTAL NC AND SC COUNTIES......

CITY           SKY/WX    TMP DP  RH WIND       PRES   REMARKS
WILMINGTON     MOSUNNY   60  56  86 CALM      30.31R
N MYRTLE BEACH SUNNY     63  60  90 CALM      30.31R
MYRTLE BEACH   SUNNY     63  57  82 CALM      30.32

......INLAND NC AND SC COUNTIES.......

CITY           SKY/WX    TMP DP  RH WIND       PRES   REMARKS
LUMBERTON      MOSUNNY   57  54  89 CALM      30.31R
ELIZABETHTOWN  PTSUNNY   57  55  93 CALM      30.31R
WHITEVILLE     MOSUNNY   57  55  92 CALM      30.31R
FLORENCE       SUNNY     60  58  92 CALM      30.30R
DARLINGTON     SUNNY     61  55  82 CALM      30.32R

....................REST OF NORTH CAROLINA......................

.........EASTERN NC.........

CITY           SKY/WX    TMP DP  RH WIND       PRES   REMARKS
CAPE HATTERAS  SUNNY     63  58  83 NW5       30.32R
JACKSONVILLE   SUNNY     55  50  82 CALM      30.32R
MOREHEAD CITY  SUNNY     64  62  93 NW5       30.32R
KENANSVILLE    PTSUNNY   54  52  92 CALM      30.33R
NEW BERN       SUNNY     59  55  87 CALM      30.33R
ELIZABETH CITY SUNNY     62  51  67 W7        30.31R

.........CENTRAL NC.........

CITY           SKY/WX    TMP DP  RH WIND       PRES   REMARKS
RALEIGH DURHAM MOSUNNY   60  55  83 SW6       30.31R
ROCKY MOUNT    MOSUNNY   60  52  74 S5        30.31R
ROANOKE RAPIDS NOT AVBL
FAYETTEVILLE   MOSUNNY   58  54  86 CALM      30.30R
HOFFMAN        MOSUNNY   56  55  97 S1        30.34R

.........WESTERN NC.........

CITY           SKY/WX    TMP DP  RH WIND       PRES   REMARKS
CHARLOTTE      MOSUNNY   60  52  74 S6        30.29R
GREENSBORO     SUNNY     60  53  77 SW8       30.28R
HICKORY        NOT AVBL
BOONE          NOT AVBL
ASHEVILLE      NOT AVBL

.....................REST OF SOUTH CAROLINA.....................

.........EASTERN SC.........

CITY           SKY/WX    TMP DP  RH WIND       PRES   REMARKS
CHARLESTON     MOSUNNY   65  61  87 CALM      30.30R
BEAUFORT MCAS  MOSUNNY   66  64  93 CALM      30.29R
HILTON HEAD    MOSUNNY   68  63  83 NE5       30.30R

.........CENTRAL SC.........

CITY           SKY/WX    TMP DP  RH WIND       PRES   REMARKS
COLUMBIA       MOSUNNY   58  53  84 CALM      30.30R
ORANGEBURG     CLOUDY    61  57  87 CALM      30.30R
SUMTER SHAW    SUNNY     61  58  90 VRB2      30.29R

.........WESTERN SC.........

CITY           SKY/WX    TMP DP  RH WIND       PRES   REMARKS
GREENVILLE     NOT AVBL
ROCK HILL      SUNNY     60  53  77 SW8       30.30R
ANDERSON       SUNNY     58  54  86 CALM      30.29R
CLEMSON        NOT AVBL
GREENWOOD      SUNNY     59  54  83 CALM      30.31R


...................COASTAL AND OFFSHORE REPORTS..................

................LOCAL PIERS AND NC RESERVE................


STATION/POSITION TIME  SKY/WX   TEMP    WIND        PRES    VSBY
                                AIR SEA DIR/SP/G
                 (UTC)          (F)     (DEG/KT/KT) (MB)    (MI)
JOHNY MRCER PIER 1100                   350/  2/  3 1025.3R
NC RESRV MASNBRO NOT AVBL
OCEAN CREST PIER 1102            62 67   10/  4/  4 1025.0R
SPRINGMAID  PIER 1100            62 67  330/  3/  3 1025.5R


................COASTAL AND OFFSHORE BUOYS................


STATION/POSITION TIME  SKY/WX   TEMP    WIND        PRES    VSBY
                                AIR SEA DIR/SP/G
                 (UTC)          (F)     (DEG/KT/KT) (MB)    (MI)
DIMNDSHOAL 41025 1150            66     330/  6/  8 1026.6R
WVE H/P(F/S)=  4/10 SWL H/P/D(F/S/D)=  5/ 70/10

CAPE LOOKOUT     1200            67     320/  4/  4 1026.4R
ONSLOW BAY 41036 NOT AVBL
5 WRITEBCH 41038 1108            67 67   70/  2/  4 1026.0R
MASONBORO  41110 1119               67                N/A
WVE H/P(F/S)=  2/13 WND WVE H/P(F/S)=  2/10 SWL H/P/D(F/S/D)=  2/ 90/13

WILM HARBR 41108 1111               67                N/A
WVE H/P(F/S)=  2/12 WND WVE H/P(F/S)=  2/ 8

27WRITEBCH 41037 1100            68 71  320/  4/  6   N/A
FRYING PAN 41013 1150            73 72  210/  6/  6 1027.2R
WVE H/P(F/S)=  3/10 WND WVE H/P(F/S)=  2/ 4 SWL H/P/D(F/S/D)=  3/ 80/10

SUNST NRSH 41024 1108            65      40/  2/  4 1025.7R
CAPRS NRSH 41029 1108            69     340/  2/  6 1025.2R
EDISTO     41004 1150            74 74   70/  4/  4 1025.6R
WVE H/P(F/S)=  3/10 WND WVE H/P(F/S)=  2/ 4 SWL H/P/D(F/S/D)=  2/10



..........OFFSHORE BUOYS BEYOND 100 NM OFFSHORE...........
.....IN A TRIANGLE---HAT TO BERMUDA TO BAHAMAS TO HAT.....


STATION/POSITION TIME  SKY/WX   TEMP    WIND        PRES    VSBY
                                AIR SEA DIR/SP/G
                 (UTC)          (F)     (DEG/KT/KT) (MB)    (MI)
150E HAT   41001 NOT AVBL
W BERMUDA  41048 1150            67 70   40/ 10/ 14 1026.0R
WVE H/P(F/S)=  6/ 9 WND WVE H/P(F/S)=  2/ 5 SWL H/P/D(F/S/D)=  7/ 9

ATLANTIC S 41049 1150            73 77   40/  8/ 10 1022.6R
WVE H/P(F/S)=  7/11 WND WVE H/P(F/S)=  2/ 4 SWL H/P/D(F/S/D)=  7/310/11

E BAHAMAS  41046 1150            80 80   80/  8/ 10 1019.2R
WVE H/P(F/S)=  7/10 WND WVE H/P(F/S)=  2/ 4 SWL H/P/D(F/S/D)=  7/350/10

NE BAHAMAS 41047 1150            72 76   50/ 17/ 19 1022.0R
WVE H/P(F/S)=  8/11 WND WVE H/P(F/S)=  5/ 5 SWL H/P/D(F/S/D)=  7/ 10/11

120E CANVRL41010 1120            73 78   80/ 16/ 19 1022.9R

END


USA.gov is the U.S. government's official web portal to all federal, state and local government web resources and services.